Zurück zum Katalog

SES 4

AktivKommunikationGEO
NORAD 38087·PAYLOAD·🇱🇺 Luxembourg

Gestartet Feb 14, 2012 von Baikonur Cosmodrome

Loading…

TLE

AktuellSource: CelesTrak SupGP

Epoche: Sep 13, 2026, 23:44 UTC

1 38087C 12007A   26256.98958333 -.00000077  00000+0  00000+0 0  2564
2 38087   0.0104  69.4471 0002453 105.0502 152.7335  1.00270992    18

Verfolge SES 4 in Echtzeit mit AllMySat

Download on the App Store